Dewpoint
10 9 12 14 13 13 13 12 12 12 11 11 12 12 8 5 3 -1 -4 -7 -14 -14 -12 -12 -10 -10 -12 -9 -10 -11 -11 -12 -18 -26 -28 -24 -20 -18 -14 -11 -9 -9 -9
9 12 14 15 14 13 12 13 12 11 11 12 12 12 8 4 1 -2 -3 -9 -15 -11 -11 -9 -8 -7 -10 -11 -12 -13 -20 -24 -26 -27 -29 -22 -20 -17 -12 -10 -9 -8 -8
12 13 14 15 14 13 12 11 13 13 12 12 10 7 4 2 1 0 -5 -11 -10 -9 -7 -5 -4 -6 -9 -13 -19 -24 -27 -27 -25 -22 -19 -19 -17 -12 -10 -9 -8 -8 -8
15 14 14 15 14 13 11 11 14 13 12 12 9 7 5 6 2 0 -5 -6 -4 -5 -6 -4 -3 -8 -12 -24 -25 -27 -28 -27 -26 -22 -20 -19 -14 -10 -8 -7 -8 -8 -9
15 15 15 14 14 13 13 14 13 13 11 11 9 5 5 3 2 -1 -6 0 -2 -4 -1 0 -6 -10 -23 -25 -27 -28 -28 -26 -24 -22 -20 -16 -10 -8 -6 -7 -7 -8 -8
15 14 14 14 14 14 14 13 12 12 10 10 7 6 4 3 1 -3 2 -0 -2 0 0 -5 -8 -19 -22 -26 -28 -28 -27 -23 -21 -20 -16 -10 -7 -6 -6 -7 -7 -7 -7
14 14 14 13 13 14 14 13 12 11 10 8 6 5 4 2 -2 1 -1 -0 0 1 -2 -7 -17 -20 -24 -26 -26 -25 -21 -17 -19 -16 -13 -8 -7 -7 -7 -7 -7 -7 -7
13 13 13 13 13 12 13 12 11 9 8 7 5 4 3 -0 0 0 -0 -0 -0 -1 -4 -14 -18 -22 -24 -26 -25 -22 -22 -19 -16 -14 -10 -7 -7 -7 -7 -7 -7 -7 -7
10 11 12 13 13 12 12 11 9 8 7 6 5 4 1 0 0 -1 -0 0 -1 -3 -11 -15 -20 -23 -24 -26 -24 -23 -23 -21 -17 -14 -11 -8 -7 -7 -7 -8 -7 -7 -7
3 9 11 12 12 12 11 9 7 6 6 5 3 1 1 -0 -1 -0 0 -0 -3 -3 -14 -19 -21 -23 -24 -25 -23 -22 -24 -23 -19 -14 -11 -9 -8 -8 -8 -8 -7 -7 -7
0 3 9 11 11 11 9 8 6 6 5 3 1 0 -0 -1 -1 -0 -0 -1 -6 -15 -19 -20 -21 -22 -23 -23 -24 -22 -24 -24 -16 -12 -10 -9 -9 -9 -8 -8 -8 -7 -8
5 4 8 10 9 9 8 7 5 5 3 1 1 -0 -0 -1 -0 -0 -1 -10 -15 -18 -19 -19 -20 -20 -21 -23 -23 -24 -24 -22 -16 -12 -11 -9 -9 -8 -8 -8 -8 -9 -8
6 6 8 8 9 7 6 5 3 3 1 1 -0 -0 -0 -0 -1 -1 -11 -12 -17 -18 -18 -18 -18 -19 -21 -23 -24 -25 -23 -20 -15 -12 -10 -9 -8 -8 -8 -8 -9 -9 -8
7 7 7 7 6 5 4 4 3 2 1 0 -1 -0 -0 -1 -1 -4 -13 -15 -16 -17 -17 -17 -17 -17 -19 -21 -23 -25 -24 -18 -14 -12 -10 -9 -8 -8 -8 -8 -9 -9 -9
6 6 5 5 4 3 2 2 2 1 1 -1 -0 0 -0 -1 -2 -6 -15 -16 -16 -16 -16 -15 -15 -15 -16 -17 -19 -21 -23 -19 -16 -12 -10 -9 -9 -8 -8 -8 -8 -9 -9
5 4 4 3 2 2 1 -0 -1 -1 -1 0 0 -0 -1 -1 -4 -13 -14 -15 -14 -14 -14 -14 -13 -13 -14 -14 -15 -17 -19 -21 -19 -14 -11 -9 -9 -8 -8 -8 -8 -9 -9
4 3 3 2 1 1 -0 -1 -1 -1 -0 -1 -1 -1 -1 -5 -6 -12 -13 -13 -12 -12 -12 -12 -11 -11 -11 -12 -13 -14 -16 -18 -20 -19 -13 -9 -8 -9 -8 -8 -8 -9 -9
2 2 1 1 0 -1 -1 -0 0 -1 -2 -2 -2 -2 -3 -4 -9 -11 -12 -12 -12 -11 -11 -10 -10 -10 -10 -10 -11 -12 -14 -16 -18 -19 -19 -10 -9 -9 -9 -8 -8 -8 -8
1 -0 -0 -1 -1 -0 0 -0 -1 -1 -2 -2 -3 -3 -4 -6 -10 -11 -12 -12 -11 -10 -9 -9 -9 -8 -9 -9 -10 -11 -12 -14 -15 -17 -18 -15 -10 -9 -9 -8 -8 -8 -8
-0 -1 -1 -0 -0 -1 -1 -1 -1 -2 -3 -3 -4 -5 -5 -10 -10 -12 -12 -11 -10 -10 -9 -8 -8 -8 -8 -9 -9 -10 -11 -12 -14 -15 -18 -18 -12 -10 -9 -8 -8 -8 -8
-1 -1 -1 -1 -1 -2 -2 -2 -2 -3 -3 -4 -5 -6 -10 -13 -13 -12 -11 -10 -10 -9 -9 -8 -7 -8 -8 -10 -9 -8 -9 -10 -12 -13 -16 -18 -19 -13 -9 -9 -8 -8 -9
-1 -2 -2 -2 -2 -2 -2 -3 -3 -3 -4 -5 -6 -7 -10 -12 -12 -11 -11 -10 -10 -9 -8 -7 -7 -7 -8 -9 -9 -9 -10 -11 -11 -12 -14 -16 -18 -20 -12 -9 -9 -8 -8
-2 -2 -2 -2 -2 -2 -3 -4 -4 -4 -5 -7 -10 -11 -12 -13 -13 -12 -11 -10 -8 -7 -7 -7 -7 -7 -7 -8 -8 -9 -9 -11 -12 -11 -13 -15 -16 -18 -21 -13 -9 -8 -8
-2 -2 -2 -2 -2 -2 -2 -3 -4 -7 -10 -13 -14 -14 -12 -12 -13 -11 -7 -6 -6 -6 -6 -7 -7 -7 -7 -8 -8 -9 -9 -9 -12 -13 -13 -13 -15 -16 -18 -21 -11 -8 -8
-13 -9 -6 -5 -6 -10 -11 -11 -12 -13 -13 -12 -12 -10 -9 -7 -6 -6 -6 -6 -6 -7 -7 -7 -7 -8 -8 -8 -9 -9 -9 -10 -11 -12 -14 -14 -16 -18 -19 -20 -20 -9 -9
-10 -12 -12 -12 -11 -11 -10 -9 -8 -7 -6 -6 -6 -6 -6 -6 -7 -7 -7 -7 -7 -8 -10 -10 -11 -10 -9 -10 -10 -9 -10 -10 -11 -12 -13 -15 -17 -19 -21 -24 -24 -12 -9
Wind_Speed
56 59 58 55 59 61 51 51 49 45 43 49 49 48 47 45 41 37 33 28 23 18 14 11 10 10 12 14 14 16 18 18 21 26 28 29 31 32 30 29 30 31 31
52 55 51 52 57 55 53 51 47 46 45 47 49 47 49 44 40 37 32 26 21 16 12 8 9 13 14 14 15 16 17 19 21 24 27 29 31 32 31 31 32 33 36
48 50 49 51 56 50 53 48 49 48 47 47 46 50 46 37 30 25 23 21 20 16 11 9 9 13 16 15 15 15 17 18 19 23 27 30 31 32 34 34 35 36 38
42 45 47 50 51 48 46 46 50 47 46 46 48 50 48 47 42 29 20 19 15 12 12 11 13 12 15 14 15 15 16 17 18 21 25 29 31 32 33 37 41 40 42
38 41 43 47 42 45 48 47 47 45 45 47 50 49 42 40 38 35 34 21 16 15 13 13 7 14 14 14 15 14 14 16 17 21 25 28 30 33 34 36 39 43 43
38 38 42 39 42 44 47 43 43 45 47 48 50 51 46 40 32 25 21 22 17 17 17 9 13 13 13 14 13 13 14 15 17 21 23 25 27 27 30 32 35 39 36
38 39 39 41 42 42 43 44 45 48 46 47 49 46 44 40 36 27 23 20 20 19 13 13 13 12 12 11 12 13 12 14 17 19 21 21 23 23 27 30 31 32 35
36 41 42 43 42 39 45 48 47 47 49 50 46 46 44 37 34 30 25 23 19 16 12 14 12 11 10 9 11 11 11 11 13 15 16 18 19 21 22 26 30 30 31
36 41 45 46 44 43 46 47 47 49 47 46 47 47 43 37 30 28 26 22 20 15 13 14 12 10 9 9 11 11 10 10 11 13 16 16 16 16 18 25 28 29 32
39 44 45 47 47 46 47 47 45 46 47 47 48 43 38 36 34 28 26 25 23 18 17 14 11 9 9 9 10 10 10 10 11 13 15 16 14 15 17 20 22 23 28
48 47 48 49 50 49 48 46 48 48 48 51 46 38 35 33 32 29 23 22 23 20 16 13 9 9 9 9 8 9 10 11 11 13 14 15 14 14 16 18 19 19 21
48 45 48 49 51 49 48 48 50 51 55 50 45 40 40 36 31 27 26 26 22 18 15 11 9 8 8 8 8 9 9 9 11 12 13 14 15 15 17 18 18 18 15
46 49 49 49 49 48 49 50 52 55 57 50 49 48 44 35 29 29 28 26 22 19 15 12 9 7 6 6 6 7 7 9 10 11 13 14 15 14 16 17 16 16 17
42 44 45 46 46 46 47 51 55 59 55 54 52 48 38 33 31 32 29 26 22 20 16 13 10 7 4 3 3 5 6 7 9 11 11 13 13 14 16 18 19 19 18
37 39 40 42 43 42 43 48 51 52 57 58 44 38 40 35 35 33 31 27 22 18 15 13 10 7 4 2 3 5 6 6 7 9 11 13 13 15 16 17 17 19 19
31 35 39 40 41 42 42 37 38 44 42 30 28 39 34 29 32 32 26 22 20 17 15 12 10 8 7 5 3 5 6 6 8 10 11 12 13 13 15 16 16 17 19
30 34 37 40 42 45 44 44 45 32 21 24 30 30 30 32 30 29 26 22 18 16 14 13 11 9 9 7 5 5 6 8 9 10 10 11 12 12 13 15 15 15 17
30 32 39 44 44 46 47 40 36 35 35 27 25 29 29 28 28 27 24 21 19 18 16 14 11 11 10 9 8 7 6 8 9 9 10 11 11 11 12 13 13 14 15
27 34 38 42 43 39 36 36 40 37 34 32 29 26 25 24 25 23 21 19 18 17 16 13 12 13 12 12 13 11 9 9 10 10 10 11 11 12 11 11 11 13 13
29 33 35 36 35 34 36 37 35 34 33 33 33 31 29 27 26 27 25 21 20 18 15 14 14 15 16 16 16 14 14 12 11 11 12 12 10 9 9 9 8 11 13
28 28 28 28 29 30 30 31 30 31 32 33 33 31 30 30 28 23 21 20 18 17 16 15 15 15 16 17 16 17 16 15 13 13 13 14 13 10 7 7 8 8 8
17 18 20 22 23 24 25 26 27 25 23 24 27 26 22 19 18 19 18 18 17 16 16 17 18 16 14 14 16 17 15 13 14 15 14 14 14 14 9 6 6 7 6
22 23 24 24 23 23 23 22 21 22 22 21 22 22 21 21 19 19 19 17 15 14 14 16 18 19 19 19 18 18 17 15 15 16 15 15 14 14 12 10 7 7 4
20 21 18 16 15 14 14 14 14 15 15 16 16 16 16 17 17 16 15 15 16 17 20 23 24 24 23 22 22 21 19 17 16 15 15 15 15 15 14 14 11 9 8
17 15 13 12 12 13 13 13 11 10 11 11 12 13 13 14 15 16 17 20 23 25 28 30 30 30 28 23 23 22 21 20 18 17 16 15 16 16 16 14 16 13 10
19 18 16 14 11 10 9 9 9 9 10 11 11 13 15 17 20 23 25 27 27 26 25 25 24 21 20 21 22 23 23 22 21 19 16 16 17 17 17 16 16 16 13
Wind_Direction
243 238 232 226 229 228 228 233 234 234 237 233 231 223 220 220 218 216 213 213 215 219 220 236 249 266 274 270 279 289 295 301 305 312 321 326 328 327 328 331 332 330 329
241 234 224 223 229 226 229 233 236 235 237 233 228 222 220 218 217 211 210 205 207 207 216 219 265 258 264 269 282 289 296 305 312 318 324 328 327 328 330 334 335 334 338
232 226 221 220 230 226 229 235 235 234 233 223 218 214 207 201 203 206 206 203 197 196 199 228 244 261 265 276 281 290 300 309 318 322 324 328 329 334 334 338 339 339 336
226 223 222 221 231 227 230 234 232 231 225 218 218 216 214 205 199 193 206 199 206 198 200 216 242 255 263 271 283 295 304 314 320 323 327 330 334 338 338 340 340 339 339
226 221 218 220 230 232 230 231 229 226 222 219 217 209 205 199 200 191 187 204 211 207 237 236 225 247 257 273 286 298 310 316 324 330 330 334 339 341 342 341 336 337 338
228 224 221 227 232 234 228 227 225 224 221 219 217 210 201 201 194 199 199 190 198 223 224 202 229 237 258 275 291 307 314 323 331 333 336 337 338 339 336 337 337 334 329
242 235 231 231 232 231 230 225 225 222 219 215 211 203 194 192 189 196 198 203 209 207 198 218 223 243 261 279 295 305 320 322 332 333 334 340 332 335 333 333 331 330 330
254 241 233 231 228 230 223 218 217 217 215 210 202 195 190 190 195 196 185 200 206 197 193 217 226 247 266 282 290 298 307 320 328 332 338 335 330 332 331 329 326 329 338
260 248 243 239 230 226 216 214 213 212 206 205 201 193 191 185 184 176 195 205 186 183 197 217 228 245 267 283 288 302 314 318 331 338 341 328 327 342 336 328 334 338 340
280 256 247 234 229 220 215 211 208 207 205 198 188 187 189 184 183 187 200 194 176 173 201 211 222 247 267 280 289 305 317 332 340 349 345 341 345 346 338 334 333 342 345
261 257 247 235 223 219 213 210 206 200 199 187 184 183 184 184 183 194 202 177 180 182 195 207 223 246 263 278 294 302 323 340 352 346 339 337 349 348 348 342 340 345 347
255 251 242 235 221 215 211 203 201 198 189 183 181 177 177 183 199 199 180 184 174 183 195 203 222 242 259 276 288 304 329 349 353 340 341 347 352 354 351 348 348 359 359
252 242 234 226 217 211 205 199 194 193 186 183 176 173 175 189 185 173 182 178 174 183 190 197 211 231 255 270 292 309 331 345 343 344 349 354 359 358 347 346 351 2 7
233 227 220 214 207 204 201 200 195 188 183 177 174 175 179 177 175 176 180 174 180 184 189 196 203 215 237 277 317 341 336 336 342 350 349 354 355 357 355 352 355 360 8
220 216 210 205 200 193 193 189 188 186 186 178 174 187 185 181 175 173 177 178 182 186 191 199 205 218 235 262 325 5 0 331 334 342 346 350 352 353 358 355 356 357 9
214 207 205 196 190 185 180 170 173 174 169 178 196 188 183 180 168 180 172 176 184 190 198 206 213 222 240 262 312 355 354 341 341 339 337 345 347 349 355 360 1 2 7
213 200 194 188 180 177 172 163 149 162 189 189 187 183 172 166 186 176 174 179 185 198 209 215 222 232 245 262 295 322 340 341 339 336 338 341 340 346 352 1 6 7 12
207 196 187 179 178 169 161 170 172 169 172 175 176 163 165 180 182 177 180 184 193 204 213 221 232 243 252 263 272 286 308 321 323 328 338 333 333 342 349 355 359 359 4
193 181 178 172 171 175 181 175 172 172 167 162 156 158 172 179 176 183 192 202 207 213 220 230 241 250 257 260 263 271 281 288 302 318 319 318 319 336 348 349 355 349 355
185 180 176 174 176 177 174 171 170 165 162 156 158 165 173 181 183 195 201 208 216 222 231 242 250 260 263 263 262 264 268 273 285 298 301 304 305 313 329 337 348 353 355
168 169 174 172 168 165 164 163 162 166 166 163 166 174 186 193 197 201 209 217 226 236 245 250 258 261 266 276 267 265 263 266 277 283 286 295 300 297 305 322 330 343 3
157 153 150 149 147 149 151 151 152 154 161 176 188 191 193 201 210 218 224 231 239 246 251 259 269 271 274 277 274 271 273 275 273 272 274 280 292 302 292 295 307 313 349
119 121 121 124 129 134 140 142 150 163 180 188 186 192 201 212 220 226 233 237 241 251 262 267 274 281 280 269 270 275 281 292 279 269 267 270 275 285 293 287 277 274 279
113 117 121 131 147 160 175 191 192 181 180 186 196 206 216 223 229 233 235 241 251 259 264 269 271 273 267 262 260 264 268 274 279 276 275 273 275 276 284 289 270 255 254
110 119 131 138 141 143 144 149 158 170 183 197 205 214 225 230 235 244 249 251 255 260 264 268 268 266 260 252 254 257 260 261 266 273 275 276 279 277 272 267 273 256 240
93 97 101 109 117 130 144 156 168 182 196 208 216 223 232 244 252 257 261 264 267 268 267 267 267 264 259 255 245 247 251 253 256 261 263 278 286 284 276 272 265 258 239
Height
1386 1391 1396 1403 1404 1410 1420 1426 1432 1438 1441 1445 1449 1454 1459 1464 1467 1472 1476 1479 1485 1490 1492 1494 1497 1500 1499 1498 1498 1498 1497 1494 1491 1487 1482 1478 1474 1469 1465 1460 1453 1449 1444
1375 1382 1390 1397 1397 1405 1413 1418 1425 1429 1433 1436 1441 1446 1452 1461 1467 1467 1471 1473 1479 1484 1488 1490 1493 1497 1497 1496 1496 1495 1493 1490 1486 1481 1478 1473 1469 1464 1458 1453 1448 1444 1438
1370 1375 1381 1388 1390 1399 1407 1414 1416 1422 1427 1434 1440 1442 1447 1457 1463 1474 1475 1475 1474 1478 1480 1483 1491 1493 1496 1493 1493 1492 1490 1486 1482 1477 1472 1469 1464 1458 1453 1447 1441 1437 1433
1371 1370 1374 1381 1385 1393 1401 1407 1410 1417 1423 1427 1432 1435 1443 1437 1453 1459 1474 1478 1479 1478 1476 1476 1485 1488 1491 1490 1490 1489 1486 1482 1478 1473 1468 1464 1459 1455 1449 1441 1435 1433 1426
1368 1369 1370 1377 1384 1388 1393 1398 1404 1411 1416 1420 1423 1430 1436 1449 1449 1448 1451 1468 1474 1471 1476 1478 1479 1485 1486 1486 1486 1485 1482 1478 1473 1469 1464 1460 1455 1451 1446 1440 1435 1428 1422
1366 1367 1369 1377 1378 1380 1386 1392 1399 1402 1407 1412 1417 1421 1430 1440 1446 1458 1457 1456 1464 1468 1474 1474 1478 1481 1482 1483 1481 1480 1478 1473 1469 1465 1462 1457 1454 1451 1447 1440 1435 1428 1416
1362 1360 1366 1369 1371 1375 1381 1387 1390 1394 1400 1407 1412 1418 1424 1431 1438 1446 1453 1455 1462 1467 1471 1472 1476 1478 1479 1479 1478 1477 1473 1470 1466 1462 1459 1456 1453 1450 1444 1438 1435 1430 1421
1355 1360 1361 1364 1366 1368 1373 1378 1381 1387 1392 1399 1407 1415 1421 1429 1433 1440 1446 1453 1461 1463 1464 1471 1473 1475 1477 1476 1475 1474 1471 1467 1464 1460 1456 1453 1450 1446 1443 1437 1433 1426 1419
1349 1351 1353 1356 1357 1360 1365 1369 1375 1380 1388 1395 1403 1410 1417 1423 1429 1435 1441 1449 1455 1458 1463 1468 1471 1472 1473 1473 1473 1471 1469 1464 1460 1457 1454 1452 1449 1445 1441 1435 1431 1423 1413
1340 1344 1346 1349 1353 1355 1357 1362 1370 1378 1384 1391 1401 1408 1413 1419 1425 1431 1436 1443 1449 1452 1459 1465 1467 1468 1470 1470 1470 1467 1465 1460 1457 1454 1452 1450 1447 1443 1440 1436 1430 1422 1414
1337 1337 1336 1341 1346 1348 1352 1357 1365 1371 1381 1388 1396 1403 1411 1417 1424 1429 1435 1440 1445 1449 1456 1461 1463 1465 1466 1466 1466 1464 1461 1457 1453 1451 1450 1449 1446 1442 1439 1436 1431 1422 1415
1326 1324 1327 1331 1337 1340 1344 1350 1359 1366 1374 1383 1387 1394 1404 1411 1419 1425 1432 1436 1441 1447 1453 1457 1460 1462 1463 1463 1462 1460 1458 1454 1451 1451 1449 1446 1443 1441 1438 1434 1431 1423 1417
1313 1317 1318 1323 1328 1333 1339 1345 1352 1359 1365 1376 1385 1392 1398 1409 1415 1423 1430 1434 1439 1445 1450 1454 1457 1459 1460 1460 1459 1457 1454 1451 1451 1450 1449 1446 1442 1438 1437 1435 1431 1424 1418
1307 1310 1316 1318 1322 1329 1336 1340 1344 1350 1359 1370 1380 1388 1395 1403 1413 1421 1428 1431 1439 1443 1447 1451 1455 1456 1457 1457 1457 1454 1452 1451 1450 1449 1447 1444 1441 1438 1436 1431 1427 1422 1414
1304 1307 1312 1317 1321 1328 1336 1341 1345 1351 1352 1360 1377 1384 1391 1400 1410 1419 1424 1430 1436 1441 1445 1449 1451 1453 1454 1455 1453 1451 1450 1450 1449 1448 1446 1443 1439 1437 1435 1431 1426 1423 1415
1299 1304 1311 1316 1319 1327 1335 1343 1349 1354 1362 1370 1374 1381 1393 1403 1412 1418 1424 1430 1436 1440 1444 1446 1448 1450 1451 1451 1450 1450 1449 1448 1447 1447 1445 1442 1440 1437 1433 1430 1427 1425 1418
1305 1306 1310 1315 1319 1323 1331 1340 1348 1361 1367 1370 1381 1384 1393 1404 1412 1417 1422 1428 1433 1438 1442 1445 1446 1447 1448 1447 1447 1448 1447 1446 1445 1444 1442 1442 1440 1436 1433 1428 1427 1426 1421
1306 1308 1310 1313 1319 1326 1334 1342 1349 1355 1364 1372 1388 1391 1396 1404 1410 1417 1421 1425 1430 1435 1440 1442 1443 1444 1444 1444 1444 1444 1443 1443 1443 1441 1439 1441 1439 1435 1433 1430 1427 1426 1422
1307 1310 1314 1318 1323 1332 1338 1344 1351 1359 1366 1376 1383 1390 1399 1404 1410 1416 1420 1424 1428 1433 1437 1438 1439 1440 1440 1440 1440 1440 1441 1442 1441 1439 1438 1437 1437 1435 1432 1430 1427 1428 1422
1313 1316 1319 1325 1330 1335 1340 1347 1355 1362 1370 1376 1382 1390 1397 1403 1408 1412 1416 1422 1426 1431 1433 1434 1435 1436 1436 1436 1436 1437 1438 1439 1438 1437 1437 1436 1434 1432 1430 1429 1425 1424 1425
1319 1323 1327 1331 1335 1341 1347 1354 1360 1367 1372 1380 1386 1391 1397 1402 1405 1410 1416 1420 1424 1427 1428 1430 1431 1432 1432 1432 1432 1433 1435 1435 1434 1434 1434 1434 1433 1430 1428 1428 1427 1425 1420
1327 1330 1334 1338 1343 1348 1354 1360 1367 1372 1378 1383 1388 1393 1399 1404 1407 1411 1414 1417 1420 1422 1424 1425 1426 1427 1427 1428 1428 1428 1429 1430 1430 1431 1432 1431 1431 1429 1426 1424 1425 1426 1423
1333 1338 1343 1347 1352 1357 1361 1367 1372 1376 1380 1384 1389 1393 1397 1402 1405 1408 1411 1414 1415 1417 1419 1420 1421 1422 1423 1424 1425 1424 1424 1425 1425 1426 1427 1427 1427 1426 1423 1423 1423 1422 1421
1342 1347 1351 1356 1360 1364 1368 1372 1376 1379 1382 1386 1390 1394 1397 1400 1402 1405 1407 1409 1410 1412 1413 1414 1415 1416 1417 1418 1419 1419 1419 1420 1420 1421 1422 1423 1422 1421 1420 1420 1420 1420 1421
1349 1353 1356 1360 1364 1368 1371 1374 1377 1381 1384 1388 1391 1393 1396 1398 1400 1401 1402 1403 1404 1405 1406 1406 1407 1408 1409 1410 1411 1412 1414 1415 1415 1416 1416 1417 1419 1415 1413 1409 1416 1418 1417
1357 1359 1363 1366 1370 1373 1376 1377 1379 1382 1384 1385 1388 1389 1392 1394 1395 1396 1396 1397 1397 1397 1397 1397 1398 1399 1400 1401 1403 1405 1407 1408 1409 1410 1409 1410 1411 1411 1411 1408 1407 1412 1412